Wind_Speed
22 22 22 23 24 24 23 21 20 20 20 21 21 22 21 21 21 21 21 20 20 20 19 19 19 18 17 17 17 17 17 17 17 16 16 16 15 15 14 14 13 13 13 12 12 12 12 12 13
24 24 24 25 25 25 24 22 22 22 22 23 23 24 23 23 22 22 22 21 21 21 20 20 20 19 19 18 18 18 18 18 17 17 17 17 17 16 15 15 15 15 15 14 14 14 14 14 15
25 26 26 27 27 26 25 24 24 24 25 25 25 25 25 24 23 22 22 22 22 21 21 21 20 20 20 19 19 18 18 18 18 18 18 18 18 18 17 16 16 16 16 16 16 16 16 16 16
27 28 28 29 28 27 27 27 27 26 26 27 26 26 26 26 25 24 23 23 23 23 22 22 22 22 21 21 20 19 19 19 19 19 19 19 19 19 19 18 18 18 18 18 17 17 18 18 18
28 29 31 30 29 29 29 29 28 28 27 28 28 28 27 27 27 26 25 25 24 24 24 23 23 23 22 22 22 21 20 20 21 21 20 20 20 20 20 20 20 19 19 20 19 19 19 19 19
30 31 32 32 31 30 31 31 30 30 30 30 30 30 28 28 28 27 27 27 26 25 25 24 24 24 24 23 23 22 22 22 22 22 22 22 21 22 22 22 21 21 21 21 21 21 20 20 20
31 32 33 33 32 32 31 31 31 31 32 31 31 31 30 29 29 29 28 28 28 27 27 26 26 26 25 24 24 24 24 24 23 23 23 23 23 23 23 23 23 23 23 23 22 22 22 21 21
32 33 33 33 33 32 32 32 32 32 32 32 32 32 31 30 31 31 30 30 30 29 29 28 28 28 27 26 25 25 25 25 25 24 25 25 24 24 24 24 23 23 23 23 23 23 24 24 23
32 33 33 32 32 32 33 33 33 33 34 33 33 32 31 31 31 31 31 31 31 30 30 30 30 29 28 28 27 27 27 27 27 26 25 26 25 25 24 24 24 24 24 24 24 24 23 23 23
32 33 32 32 32 33 33 33 33 33 34 34 34 33 33 32 32 32 32 32 32 31 31 31 31 31 31 30 29 29 28 28 28 27 26 26 27 26 26 26 25 25 25 25 25 24 24 23 23
31 32 31 31 32 32 33 34 34 33 34 35 35 35 35 34 34 33 33 33 33 33 33 32 32 32 32 31 31 30 29 28 29 28 28 28 28 28 28 28 27 27 26 26 26 25 25 24 24
31 32 32 32 32 32 33 34 34 34 34 36 36 36 36 36 35 34 34 34 35 35 35 34 34 34 34 33 32 32 31 31 31 30 31 31 30 30 30 29 29 28 28 28 28 27 27 26 26
32 32 33 33 33 33 34 34 34 33 35 36 37 37 37 37 36 36 36 36 36 36 36 36 36 35 35 34 34 34 34 33 33 32 32 32 32 31 31 31 30 30 30 30 29 28 28 28 28
32 32 33 33 33 33 33 34 34 33 35 36 37 38 38 37 37 36 36 37 37 37 37 37 37 37 36 36 36 35 35 35 35 35 34 33 33 33 32 31 32 32 31 31 30 30 29 29 29
32 32 33 33 33 33 33 34 34 34 36 37 39 39 39 38 38 38 37 37 38 38 38 38 38 38 38 37 37 36 36 36 36 36 35 34 34 34 34 33 33 33 32 32 31 31 30 30 30
32 32 33 32 32 33 34 34 34 35 36 37 38 39 40 39 39 39 39 39 38 39 39 39 39 39 39 38 38 38 36 36 36 37 36 36 35 35 35 34 34 34 33 33 33 32 31 31 31
32 32 32 32 32 33 34 33 33 35 35 36 37 39 40 40 40 40 40 40 40 40 40 40 40 40 40 39 39 39 38 38 37 37 36 36 36 36 36 36 35 35 34 34 34 33 32 32 32
31 31 31 31 32 33 33 33 33 34 35 35 37 38 39 39 39 40 41 41 41 40 40 40 40 41 41 40 40 40 40 40 39 38 37 37 37 37 36 36 36 35 35 35 34 34 33 33 33
30 31 31 31 32 32 32 33 33 35 35 35 36 37 37 37 38 39 40 40 40 40 40 41 41 42 41 41 41 41 41 41 40 39 38 38 38 38 37 36 36 36 36 35 35 35 35 35 34
29 31 31 31 32 32 32 32 33 34 34 35 35 35 35 36 36 37 37 38 39 40 40 41 42 42 42 42 42 42 42 42 41 40 40 39 38 38 37 37 37 37 37 36 35 35 35 35 35
28 29 30 32 32 33 33 33 33 33 33 33 34 34 34 34 34 36 37 37 38 39 39 39 41 42 42 43 43 43 43 43 43 41 40 40 40 40 39 38 38 38 38 38 38 37 36 36 36
27 28 29 30 32 33 33 34 32 32 32 32 33 34 35 36 36 35 35 35 36 37 38 38 39 41 42 42 42 42 42 43 42 41 41 42 41 41 40 39 38 39 39 39 39 40 39 37 37
28 29 30 30 31 33 32 34 32 33 33 33 33 34 35 36 36 35 35 34 35 36 37 38 38 40 40 41 41 42 42 43 43 42 42 42 42 42 41 40 39 38 39 40 39 40 40 40 39
28 29 30 31 32 33 32 33 34 32 32 33 34 34 34 35 36 36 36 36 36 36 36 37 37 39 39 40 41 41 42 42 43 43 42 42 42 41 40 40 40 39 39 40 39 40 40 40 41
26 27 28 30 32 33 33 34 34 32 32 32 33 34 35 35 35 36 36 36 36 36 36 37 36 37 38 39 40 40 41 42 43 43 42 41 41 41 41 40 40 39 40 40 39 39 40 41 41
26 27 27 29 30 31 33 34 33 32 32 32 33 33 34 36 36 36 36 37 37 37 36 36 36 36 36 38 39 39 40 41 42 42 42 41 41 41 40 40 40 39 39 40 40 39 39 39 39
26 27 27 28 29 30 31 31 30 31 31 32 32 33 34 35 36 37 37 37 36 36 37 37 36 36 36 37 37 38 39 39 40 40 41 42 42 41 41 40 40 39 39 40 41 41 40 39 39
26 26 27 28 28 29 29 28 28 29 30 31 32 33 34 34 35 35 36 36 36 36 36 36 36 36 37 37 37 37 38 39 39 40 40 41 41 41 41 40 40 39 38 39 39 39 39 39 40
25 26 27 29 29 30 29 27 26 28 29 29 29 30 32 32 33 34 35 35 36 36 36 36 36 36 37 37 37 37 37 38 39 39 39 38 38 39 40 40 39 40 40 39 39 38 39 39 40
26 26 26 27 28 29 30 28 27 28 28 28 28 28 29 30 31 32 33 34 35 35 35 35 36 36 36 36 36 36 37 37 37 38 38 38 38 37 38 38 38 39 39 39 39 39 39 40 40
Wind_Direction
261 260 259 257 255 254 254 253 252 250 249 246 245 243 241 241 239 239 239 238 239 239 239 239 236 235 235 235 236 236 237 239 238 237 238 239 241 241 242 246 248 249 251 253 257 260 262 262 260
262 260 259 258 256 256 255 253 252 249 247 245 245 245 243 243 242 241 240 239 239 239 240 240 239 237 236 235 235 235 238 239 239 239 240 242 243 245 246 248 250 252 254 256 260 262 263 263 262
261 259 258 257 257 257 257 254 251 249 246 245 244 245 244 244 243 243 241 240 240 240 240 240 240 238 238 236 236 236 237 239 240 241 242 244 245 247 249 251 253 255 256 258 261 262 264 264 263
261 259 258 258 258 257 256 254 250 249 247 246 245 245 245 244 243 242 242 241 240 240 241 241 241 240 240 240 239 238 238 239 241 242 244 245 246 248 250 252 254 256 258 260 261 263 264 264 264
262 260 258 258 258 256 254 253 251 249 248 247 246 245 245 243 242 241 242 242 241 241 240 240 241 241 241 241 241 241 241 241 242 244 246 247 248 249 251 254 256 258 259 260 262 264 265 265 264
263 261 260 259 257 255 254 253 251 248 247 247 246 245 243 244 243 242 241 241 241 241 240 240 241 241 241 242 242 242 243 244 244 245 247 248 250 252 252 254 257 259 261 261 263 265 267 266 264
263 262 260 258 256 254 254 252 250 249 247 246 246 246 245 245 244 242 241 241 241 242 242 241 241 241 241 243 243 243 243 245 245 246 248 250 251 253 254 254 256 258 260 262 264 265 266 265 263
263 262 260 258 256 255 253 252 250 249 247 247 246 247 246 245 245 244 243 242 242 242 242 242 242 242 242 243 244 244 244 246 248 248 250 251 251 253 254 254 256 257 259 261 263 265 265 264 262
263 261 260 258 257 255 253 252 250 248 247 246 247 247 246 245 244 244 243 242 242 242 241 241 242 243 243 244 245 246 246 246 248 249 251 251 251 253 254 255 257 258 260 262 263 264 264 263 262
265 262 261 259 257 255 254 252 251 249 247 246 246 246 245 244 243 244 244 243 242 242 242 241 242 243 244 245 245 246 247 247 248 249 251 253 253 253 255 256 258 259 260 262 262 263 263 262 261
266 264 262 258 256 255 254 252 251 250 247 246 246 245 245 244 243 243 243 243 243 242 242 241 242 243 244 245 246 246 246 247 248 249 251 254 254 255 256 257 259 260 261 262 262 261 262 263 261
267 264 261 259 257 255 254 252 251 250 248 246 245 245 246 246 244 243 243 243 243 243 242 242 242 243 244 244 245 246 247 248 249 251 252 254 255 256 256 257 258 259 261 262 261 262 262 262 260
268 264 260 258 256 256 255 253 250 249 249 247 246 245 246 246 245 244 243 242 242 242 242 242 242 243 244 245 246 247 248 248 249 251 252 253 254 255 256 256 257 259 261 260 261 262 261 261 260
267 263 259 258 256 256 255 253 251 250 250 248 247 245 245 246 246 245 244 243 242 243 242 242 243 244 245 246 247 247 249 250 250 250 251 253 254 255 256 257 257 258 260 259 259 260 260 260 259
266 262 258 256 256 256 255 252 252 251 250 249 248 247 246 245 245 245 244 244 243 242 242 243 244 245 246 246 247 247 248 250 250 250 251 252 254 255 257 257 257 258 259 258 259 259 259 259 259
265 261 258 256 256 257 256 253 252 252 252 250 249 248 247 246 245 244 244 244 243 243 243 243 244 245 245 245 246 247 247 249 250 251 251 252 253 255 257 257 257 257 258 258 258 258 259 259 259
265 262 259 257 256 258 258 256 254 254 253 252 250 249 248 246 246 245 244 244 243 244 244 244 243 244 245 246 247 247 247 248 249 250 251 252 252 254 256 256 256 256 257 258 258 258 259 259 260
267 263 260 258 256 258 258 255 254 255 253 252 252 250 249 248 247 245 245 245 244 244 244 243 243 244 245 246 247 248 247 248 249 250 250 252 253 255 256 257 257 257 257 258 258 258 259 259 259
267 263 259 258 258 259 259 256 255 254 254 253 250 250 250 249 248 246 246 246 245 244 244 244 244 244 245 246 247 249 249 249 250 251 251 252 254 255 258 259 259 258 257 258 257 259 259 259 259
268 265 260 258 259 260 260 258 256 254 254 252 251 250 250 248 247 247 247 247 246 245 245 246 245 245 246 247 248 249 249 249 251 252 254 254 254 255 257 259 259 258 257 257 257 258 258 258 258
268 266 263 262 262 262 263 260 257 255 255 254 252 249 247 246 247 247 247 247 247 246 245 246 246 247 247 248 249 249 248 249 250 252 253 254 254 254 256 258 259 259 258 257 256 257 258 258 258
270 267 267 265 263 264 264 263 258 255 254 253 252 251 249 247 247 248 247 247 247 248 246 247 249 248 248 249 250 250 249 249 251 253 253 253 254 254 254 256 257 258 258 256 256 257 258 259 258
271 269 268 266 265 266 265 265 262 256 254 253 252 252 251 250 249 249 248 247 247 249 248 248 249 249 248 249 250 251 250 250 252 254 255 254 253 254 255 255 257 257 257 257 256 257 258 258 259
271 271 269 266 265 265 265 265 264 259 256 254 254 253 252 252 252 251 250 249 249 248 249 248 248 248 248 249 250 251 251 251 252 254 256 254 254 255 256 256 257 257 257 257 256 257 257 258 259
269 270 271 269 266 266 265 265 264 262 259 257 255 254 254 253 253 252 252 251 250 249 248 248 248 248 249 250 251 251 251 251 252 254 255 254 254 255 255 256 256 256 256 256 257 258 258 258 258
270 268 269 270 270 269 267 265 264 263 261 258 256 256 256 255 255 254 253 252 252 250 249 249 250 249 250 251 252 251 251 251 252 253 252 253 254 255 255 255 256 256 256 257 257 258 259 258 258
273 270 269 271 271 272 270 267 264 264 262 260 258 258 258 256 255 255 255 252 251 251 250 250 250 250 251 252 252 251 251 252 252 253 252 252 253 253 255 256 257 258 258 257 258 258 259 259 259
274 273 270 270 272 273 271 270 268 264 263 261 260 260 260 258 256 256 255 252 250 250 251 251 251 250 249 251 251 251 251 252 252 252 252 251 251 252 254 256 257 258 258 259 260 259 259 259 260
275 274 271 269 270 272 272 271 269 268 265 264 263 262 260 259 258 256 254 253 251 251 252 252 251 251 251 251 250 250 251 252 253 252 251 251 251 252 254 255 256 257 258 258 258 258 259 260 261
273 274 273 271 271 270 271 270 268 267 266 265 263 262 260 259 258 258 255 252 251 252 252 251 251 251 251 250 249 249 249 250 251 250 249 249 250 252 254 254 256 258 257 257 257 259 260 261 261
Height
5820 5820 5821 5822 5823 5824 5825 5827 5828 5829 5829 5830 5830 5832 5834 5835 5837 5840 5839 5839 5840 5841 5842 5843 5844 5845 5846 5847 5848 5849 5850 5851 5852 5852 5853 5854 5854 5855 5856 5856 5857 5857 5857 5858 5858 5858 5858 5858 5858
5815 5815 5817 5817 5817 5818 5821 5822 5823 5823 5824 5825 5826 5827 5829 5830 5832 5833 5834 5835 5836 5838 5839 5840 5841 5842 5843 5844 5845 5846 5847 5848 5849 5849 5850 5851 5852 5852 5853 5853 5854 5854 5855 5855 5855 5855 5855 5855 5855
5809 5810 5811 5811 5812 5814 5816 5817 5817 5817 5818 5820 5821 5822 5824 5826 5827 5828 5830 5831 5833 5834 5835 5836 5838 5839 5840 5841 5842 5843 5844 5845 5846 5846 5847 5848 5849 5849 5850 5850 5851 5851 5851 5852 5852 5852 5852 5852 5852
5803 5804 5805 5806 5806 5809 5809 5810 5811 5811 5812 5814 5815 5817 5819 5821 5822 5824 5825 5827 5828 5829 5831 5832 5834 5835 5836 5837 5838 5839 5840 5841 5842 5843 5844 5845 5846 5846 5846 5847 5847 5848 5848 5848 5848 5848 5848 5848 5848
5797 5797 5798 5799 5800 5802 5802 5803 5804 5805 5806 5808 5809 5811 5813 5815 5817 5819 5821 5822 5823 5825 5826 5828 5829 5831 5832 5834 5835 5835 5836 5837 5839 5839 5840 5841 5842 5842 5843 5843 5844 5844 5844 5844 5844 5844 5844 5844 5844
5790 5790 5791 5792 5793 5794 5794 5795 5796 5798 5799 5801 5802 5804 5807 5809 5811 5813 5815 5817 5818 5820 5821 5823 5824 5826 5828 5829 5830 5831 5832 5833 5834 5835 5836 5837 5837 5838 5839 5839 5840 5840 5840 5840 5840 5840 5840 5840 5840
5783 5782 5782 5784 5785 5786 5787 5787 5789 5790 5792 5794 5795 5797 5801 5803 5805 5807 5809 5811 5813 5814 5816 5817 5819 5821 5822 5824 5825 5827 5828 5829 5829 5830 5832 5832 5833 5834 5834 5835 5835 5835 5836 5836 5836 5835 5835 5835 5835
5773 5774 5774 5775 5776 5778 5779 5780 5781 5782 5784 5786 5788 5790 5794 5796 5797 5800 5802 5804 5806 5808 5810 5812 5814 5815 5817 5819 5820 5821 5823 5824 5824 5825 5826 5827 5828 5829 5829 5830 5830 5831 5831 5831 5831 5830 5830 5830 5830
5764 5765 5765 5767 5768 5769 5770 5771 5773 5774 5776 5778 5780 5783 5786 5788 5790 5793 5795 5798 5800 5802 5804 5806 5808 5809 5811 5813 5814 5816 5817 5818 5819 5820 5821 5822 5823 5824 5824 5825 5825 5826 5826 5826 5825 5825 5825 5825 5825
5756 5756 5758 5759 5759 5760 5761 5763 5765 5766 5768 5770 5773 5775 5778 5780 5783 5786 5788 5791 5793 5795 5798 5800 5802 5803 5805 5807 5808 5810 5811 5812 5813 5814 5815 5816 5817 5818 5819 5820 5820 5820 5820 5820 5820 5820 5820 5820 5820
5747 5747 5749 5750 5750 5751 5752 5754 5756 5758 5761 5763 5765 5767 5769 5772 5775 5778 5781 5783 5786 5788 5791 5793 5795 5796 5798 5800 5802 5803 5805 5806 5807 5808 5810 5811 5811 5812 5813 5814 5815 5815 5815 5815 5815 5814 5815 5815 5815
5738 5739 5740 5741 5741 5742 5743 5745 5747 5749 5752 5754 5756 5758 5761 5764 5767 5770 5773 5776 5778 5781 5783 5785 5787 5789 5791 5793 5795 5796 5798 5800 5801 5802 5803 5804 5805 5806 5807 5808 5808 5809 5809 5809 5809 5809 5809 5809 5809
5730 5730 5731 5732 5733 5734 5735 5736 5738 5741 5743 5744 5747 5750 5753 5755 5758 5761 5764 5767 5770 5773 5775 5777 5779 5782 5784 5785 5787 5789 5791 5792 5794 5795 5796 5797 5798 5799 5800 5801 5802 5802 5802 5803 5803 5803 5803 5803 5803
5721 5721 5721 5722 5723 5725 5726 5728 5730 5733 5734 5735 5738 5741 5743 5746 5749 5752 5755 5758 5761 5764 5766 5769 5771 5774 5776 5778 5779 5781 5783 5784 5786 5788 5789 5790 5791 5792 5793 5794 5795 5795 5796 5796 5796 5797 5797 5797 5797
5712 5712 5713 5714 5714 5716 5717 5719 5722 5723 5724 5726 5728 5731 5734 5737 5739 5743 5746 5749 5751 5754 5757 5760 5763 5765 5767 5769 5771 5773 5774 5776 5778 5779 5781 5783 5784 5785 5786 5787 5788 5788 5788 5789 5789 5790 5790 5790 5791
5704 5703 5704 5706 5706 5707 5709 5710 5713 5713 5714 5716 5719 5721 5724 5727 5730 5733 5736 5739 5742 5745 5747 5750 5753 5756 5758 5760 5762 5764 5766 5767 5769 5771 5773 5775 5776 5777 5778 5779 5780 5781 5781 5781 5782 5782 5783 5783 5784
5695 5695 5696 5698 5698 5698 5699 5701 5704 5704 5705 5707 5709 5711 5714 5717 5720 5723 5725 5728 5731 5734 5737 5740 5743 5746 5748 5750 5753 5754 5756 5758 5760 5762 5764 5766 5768 5769 5770 5772 5772 5773 5773 5774 5774 5775 5776 5776 5777
5686 5687 5687 5689 5690 5690 5691 5693 5695 5695 5696 5698 5700 5702 5704 5707 5710 5712 5715 5718 5721 5724 5727 5729 5732 5735 5738 5740 5743 5745 5747 5749 5752 5754 5756 5757 5759 5761 5762 5763 5764 5765 5766 5766 5767 5768 5768 5769 5769
5678 5678 5679 5681 5681 5682 5683 5684 5686 5687 5688 5689 5691 5693 5695 5698 5700 5702 5705 5707 5710 5714 5716 5719 5722 5724 5727 5730 5732 5735 5738 5740 5742 5744 5747 5749 5750 5752 5753 5755 5756 5757 5757 5758 5759 5759 5760 5761 5762
5670 5670 5672 5673 5673 5673 5674 5676 5677 5678 5679 5681 5682 5684 5686 5688 5691 5693 5695 5698 5700 5703 5706 5709 5712 5714 5717 5720 5722 5725 5727 5730 5733 5735 5737 5740 5742 5743 5744 5746 5747 5748 5749 5750 5750 5751 5752 5753 5754
5663 5663 5664 5664 5665 5665 5666 5668 5669 5670 5670 5672 5673 5675 5677 5679 5681 5683 5685 5688 5690 5693 5696 5699 5702 5704 5706 5709 5711 5714 5717 5720 5723 5725 5728 5730 5732 5734 5735 5736 5738 5739 5740 5741 5742 5743 5744 5744 5745
5656 5656 5656 5656 5656 5656 5658 5657 5661 5661 5662 5664 5665 5666 5668 5670 5672 5674 5677 5679 5681 5683 5686 5689 5691 5694 5696 5699 5701 5703 5706 5710 5713 5716 5718 5720 5722 5724 5726 5727 5728 5730 5730 5731 5732 5733 5734 5736 5737
5648 5648 5648 5648 5647 5648 5648 5648 5652 5653 5654 5656 5657 5658 5660 5662 5664 5666 5668 5670 5672 5674 5676 5679 5681 5684 5686 5689 5691 5693 5697 5700 5702 5705 5707 5709 5712 5714 5716 5717 5719 5720 5721 5722 5723 5724 5725 5727 5728
5641 5641 5640 5639 5639 5639 5641 5640 5642 5644 5646 5647 5648 5649 5651 5653 5655 5656 5658 5661 5663 5665 5667 5669 5671 5674 5676 5679 5681 5684 5687 5690 5692 5694 5696 5699 5701 5703 5705 5707 5708 5710 5711 5712 5713 5714 5715 5717 5718
5634 5634 5633 5631 5630 5631 5633 5631 5634 5636 5637 5638 5639 5640 5641 5643 5645 5647 5649 5651 5654 5656 5658 5660 5662 5664 5666 5669 5671 5674 5677 5679 5682 5684 5686 5688 5691 5693 5695 5697 5698 5700 5701 5702 5703 5705 5705 5706 5708
5626 5626 5626 5624 5623 5623 5623 5623 5627 5627 5628 5628 5630 5631 5632 5634 5635 5637 5639 5641 5644 5646 5648 5650 5652 5655 5657 5659 5662 5664 5666 5669 5671 5673 5675 5678 5680 5683 5685 5686 5688 5690 5691 5692 5693 5695 5696 5696 5698
5618 5618 5618 5617 5615 5615 5614 5616 5618 5618 5619 5620 5621 5622 5623 5624 5626 5627 5629 5631 5634 5636 5638 5640 5643 5645 5648 5650 5652 5654 5657 5659 5661 5663 5665 5667 5670 5672 5674 5676 5677 5679 5681 5682 5683 5685 5686 5687 5688
5611 5611 5610 5609 5608 5607 5608 5609 5611 5610 5610 5612 5613 5613 5614 5615 5616 5618 5619 5621 5624 5626 5629 5631 5633 5635 5638 5640 5642 5644 5647 5649 5651 5652 5654 5657 5659 5661 5664 5665 5667 5669 5670 5672 5673 5674 5675 5676 5678
5604 5603 5602 5601 5600 5600 5600 5604 5603 5603 5603 5604 5604 5604 5605 5606 5607 5608 5610 5612 5614 5617 5619 5621 5624 5626 5628 5630 5633 5635 5637 5639 5641 5643 5645 5647 5649 5651 5653 5655 5657 5659 5660 5662 5663 5664 5666 5666 5667
5595 5595 5595 5595 5593 5592 5592 5598 5595 5595 5595 5596 5596 5596 5596 5597 5599 5600 5601 5603 5605 5607 5609 5612 5614 5616 5618 5620 5623 5625 5627 5629 5631 5633 5635 5637 5640 5641 5643 5645 5647 5648 5650 5652 5653 5654 5655 5656 5657